Index of /20260415/WXO-DD/model_gdps/15km/12/096
Name Last modified Size Description
Parent Directory -
20260415T12Z_MSC_GDPS_AbsoluteVorticity_IsbL-0200_LatLon0.15_PT096H.grib2 2026-04-15 16:25 1.5M
20260415T12Z_MSC_GDPS_AbsoluteVorticity_IsbL-0250_LatLon0.15_PT096H.grib2 2026-04-15 16:25 1.6M
20260415T12Z_MSC_GDPS_AbsoluteVorticity_IsbL-0500_LatLon0.15_PT096H.grib2 2026-04-15 16:25 1.4M
20260415T12Z_MSC_GDPS_AbsoluteVorticity_IsbL-0700_LatLon0.15_PT096H.grib2 2026-04-15 16:25 1.3M
20260415T12Z_MSC_GDPS_AbsoluteVorticity_IsbL-0850_LatLon0.15_PT096H.grib2 2026-04-15 16:25 1.6M
20260415T12Z_MSC_GDPS_AirTemp-Max_AGL-2m_LatLon0.15_PT096H.grib2 2026-04-15 16:25 745K
20260415T12Z_MSC_GDPS_AirTemp-Min_AGL-2m_LatLon0.15_PT096H.grib2 2026-04-15 16:25 790K
20260415T12Z_MSC_GDPS_AirTemp_AGL-120m_LatLon0.15_PT096H.grib2 2026-04-15 16:25 910K
20260415T12Z_MSC_GDPS_AirTemp_AGL-2m_LatLon0.15_PT096H.grib2 2026-04-15 16:25 1.0M
20260415T12Z_MSC_GDPS_AirTemp_AGL-40m_LatLon0.15_PT096H.grib2 2026-04-15 16:25 928K
20260415T12Z_MSC_GDPS_AirTemp_AGL-80m_LatLon0.15_PT096H.grib2 2026-04-15 16:25 917K
20260415T12Z_MSC_GDPS_AirTemp_IsbL-0001_LatLon0.15_PT096H.grib2 2026-04-15 16:25 701K
20260415T12Z_MSC_GDPS_AirTemp_IsbL-0005_LatLon0.15_PT096H.grib2 2026-04-15 16:25 686K
20260415T12Z_MSC_GDPS_AirTemp_IsbL-0010_LatLon0.15_PT096H.grib2 2026-04-15 16:25 754K
20260415T12Z_MSC_GDPS_AirTemp_IsbL-0020_LatLon0.15_PT096H.grib2 2026-04-15 16:25 694K
20260415T12Z_MSC_GDPS_AirTemp_IsbL-0030_LatLon0.15_PT096H.grib2 2026-04-15 16:25 746K
20260415T12Z_MSC_GDPS_AirTemp_IsbL-0050_LatLon0.15_PT096H.grib2 2026-04-15 16:25 814K
20260415T12Z_MSC_GDPS_AirTemp_IsbL-0100_LatLon0.15_PT096H.grib2 2026-04-15 16:25 951K
20260415T12Z_MSC_GDPS_AirTemp_IsbL-0150_LatLon0.15_PT096H.grib2 2026-04-15 16:25 1.0M
20260415T12Z_MSC_GDPS_AirTemp_IsbL-0175_LatLon0.15_PT096H.grib2 2026-04-15 16:25 965K
20260415T12Z_MSC_GDPS_AirTemp_IsbL-0200_LatLon0.15_PT096H.grib2 2026-04-15 16:25 1.0M
20260415T12Z_MSC_GDPS_AirTemp_IsbL-0225_LatLon0.15_PT096H.grib2 2026-04-15 16:25 1.0M
20260415T12Z_MSC_GDPS_AirTemp_IsbL-0250_LatLon0.15_PT096H.grib2 2026-04-15 16:25 1.0M
20260415T12Z_MSC_GDPS_AirTemp_IsbL-0275_LatLon0.15_PT096H.grib2 2026-04-15 16:25 1.0M
20260415T12Z_MSC_GDPS_AirTemp_IsbL-0300_LatLon0.15_PT096H.grib2 2026-04-15 16:25 1.0M
20260415T12Z_MSC_GDPS_AirTemp_IsbL-0350_LatLon0.15_PT096H.grib2 2026-04-15 16:25 924K
20260415T12Z_MSC_GDPS_AirTemp_IsbL-0400_LatLon0.15_PT096H.grib2 2026-04-15 16:25 939K
20260415T12Z_MSC_GDPS_AirTemp_IsbL-0450_LatLon0.15_PT096H.grib2 2026-04-15 16:25 961K
20260415T12Z_MSC_GDPS_AirTemp_IsbL-0500_LatLon0.15_PT096H.grib2 2026-04-15 16:25 1.0M
20260415T12Z_MSC_GDPS_AirTemp_IsbL-0550_LatLon0.15_PT096H.grib2 2026-04-15 16:25 1.0M
20260415T12Z_MSC_GDPS_AirTemp_IsbL-0600_LatLon0.15_PT096H.grib2 2026-04-15 16:25 900K
20260415T12Z_MSC_GDPS_AirTemp_IsbL-0650_LatLon0.15_PT096H.grib2 2026-04-15 16:25 932K
20260415T12Z_MSC_GDPS_AirTemp_IsbL-0700_LatLon0.15_PT096H.grib2 2026-04-15 16:25 963K
20260415T12Z_MSC_GDPS_AirTemp_IsbL-0750_LatLon0.15_PT096H.grib2 2026-04-15 16:25 1.0M
20260415T12Z_MSC_GDPS_AirTemp_IsbL-0800_LatLon0.15_PT096H.grib2 2026-04-15 16:25 1.1M
20260415T12Z_MSC_GDPS_AirTemp_IsbL-0850_LatLon0.15_PT096H.grib2 2026-04-15 16:25 1.1M
20260415T12Z_MSC_GDPS_AirTemp_IsbL-0875_LatLon0.15_PT096H.grib2 2026-04-15 16:25 1.2M
20260415T12Z_MSC_GDPS_AirTemp_IsbL-0900_LatLon0.15_PT096H.grib2 2026-04-15 16:25 1.1M
20260415T12Z_MSC_GDPS_AirTemp_IsbL-0925_LatLon0.15_PT096H.grib2 2026-04-15 16:25 1.1M
20260415T12Z_MSC_GDPS_AirTemp_IsbL-0950_LatLon0.15_PT096H.grib2 2026-04-15 16:25 1.1M
20260415T12Z_MSC_GDPS_AirTemp_IsbL-0970_LatLon0.15_PT096H.grib2 2026-04-15 16:25 1.1M
20260415T12Z_MSC_GDPS_AirTemp_IsbL-0985_LatLon0.15_PT096H.grib2 2026-04-15 16:25 1.1M
20260415T12Z_MSC_GDPS_AirTemp_IsbL-1000_LatLon0.15_PT096H.grib2 2026-04-15 16:25 1.1M
20260415T12Z_MSC_GDPS_AirTemp_IsbL-1015_LatLon0.15_PT096H.grib2 2026-04-15 16:25 1.1M
20260415T12Z_MSC_GDPS_Albedo_Sfc_LatLon0.15_PT096H.grib2 2026-04-15 16:25 244K
20260415T12Z_MSC_GDPS_CAPE_Sfc_LatLon0.15_PT096H.grib2 2026-04-15 16:25 3.8M
20260415T12Z_MSC_GDPS_CIN_Sfc_LatLon0.15_PT096H.grib2 2026-04-15 16:25 2.9M
20260415T12Z_MSC_GDPS_CloudWater_EAtm_LatLon0.15_PT096H.grib2 2026-04-15 16:25 533K
20260415T12Z_MSC_GDPS_ConvectivePrecip-Accum_Sfc_LatLon0.15_PT096H.grib2 2026-04-15 16:25 3.3M
20260415T12Z_MSC_GDPS_DewPointDepression_AGL-2m_LatLon0.15_PT096H.grib2 2026-04-15 16:25 584K
20260415T12Z_MSC_GDPS_DewPointDepression_IsbL-0010_LatLon0.15_PT096H.grib2 2026-04-15 16:25 6.1K
20260415T12Z_MSC_GDPS_DewPointDepression_IsbL-0020_LatLon0.15_PT096H.grib2 2026-04-15 16:25 81K
20260415T12Z_MSC_GDPS_DewPointDepression_IsbL-0030_LatLon0.15_PT096H.grib2 2026-04-15 16:25 71K
20260415T12Z_MSC_GDPS_DewPointDepression_IsbL-0050_LatLon0.15_PT096H.grib2 2026-04-15 16:25 355K
20260415T12Z_MSC_GDPS_DewPointDepression_IsbL-0100_LatLon0.15_PT096H.grib2 2026-04-15 16:25 380K
20260415T12Z_MSC_GDPS_DewPointDepression_IsbL-0150_LatLon0.15_PT096H.grib2 2026-04-15 16:25 462K
20260415T12Z_MSC_GDPS_DewPointDepression_IsbL-0175_LatLon0.15_PT096H.grib2 2026-04-15 16:25 544K
20260415T12Z_MSC_GDPS_DewPointDepression_IsbL-0200_LatLon0.15_PT096H.grib2 2026-04-15 16:25 614K
20260415T12Z_MSC_GDPS_DewPointDepression_IsbL-0225_LatLon0.15_PT096H.grib2 2026-04-15 16:25 743K
20260415T12Z_MSC_GDPS_DewPointDepression_IsbL-0250_LatLon0.15_PT096H.grib2 2026-04-15 16:25 866K
20260415T12Z_MSC_GDPS_DewPointDepression_IsbL-0275_LatLon0.15_PT096H.grib2 2026-04-15 16:25 881K
20260415T12Z_MSC_GDPS_DewPointDepression_IsbL-0300_LatLon0.15_PT096H.grib2 2026-04-15 16:25 918K
20260415T12Z_MSC_GDPS_DewPointDepression_IsbL-0350_LatLon0.15_PT096H.grib2 2026-04-15 16:25 943K
20260415T12Z_MSC_GDPS_DewPointDepression_IsbL-0400_LatLon0.15_PT096H.grib2 2026-04-15 16:25 1.0M
20260415T12Z_MSC_GDPS_DewPointDepression_IsbL-0450_LatLon0.15_PT096H.grib2 2026-04-15 16:25 1.0M
20260415T12Z_MSC_GDPS_DewPointDepression_IsbL-0500_LatLon0.15_PT096H.grib2 2026-04-15 16:25 1.0M
20260415T12Z_MSC_GDPS_DewPointDepression_IsbL-0550_LatLon0.15_PT096H.grib2 2026-04-15 16:25 1.0M
20260415T12Z_MSC_GDPS_DewPointDepression_IsbL-0600_LatLon0.15_PT096H.grib2 2026-04-15 16:25 1.1M
20260415T12Z_MSC_GDPS_DewPointDepression_IsbL-0650_LatLon0.15_PT096H.grib2 2026-04-15 16:25 1.1M
20260415T12Z_MSC_GDPS_DewPointDepression_IsbL-0700_LatLon0.15_PT096H.grib2 2026-04-15 16:25 1.1M
20260415T12Z_MSC_GDPS_DewPointDepression_IsbL-0750_LatLon0.15_PT096H.grib2 2026-04-15 16:25 1.1M
20260415T12Z_MSC_GDPS_DewPointDepression_IsbL-0800_LatLon0.15_PT096H.grib2 2026-04-15 16:25 1.2M
20260415T12Z_MSC_GDPS_DewPointDepression_IsbL-0850_LatLon0.15_PT096H.grib2 2026-04-15 16:25 1.2M
20260415T12Z_MSC_GDPS_DewPointDepression_IsbL-0875_LatLon0.15_PT096H.grib2 2026-04-15 16:25 1.1M
20260415T12Z_MSC_GDPS_DewPointDepression_IsbL-0900_LatLon0.15_PT096H.grib2 2026-04-15 16:25 1.1M
20260415T12Z_MSC_GDPS_DewPointDepression_IsbL-0925_LatLon0.15_PT096H.grib2 2026-04-15 16:25 1.0M
20260415T12Z_MSC_GDPS_DewPointDepression_IsbL-0950_LatLon0.15_PT096H.grib2 2026-04-15 16:25 1.0M
20260415T12Z_MSC_GDPS_DewPointDepression_IsbL-0970_LatLon0.15_PT096H.grib2 2026-04-15 16:25 1.0M
20260415T12Z_MSC_GDPS_DewPointDepression_IsbL-0985_LatLon0.15_PT096H.grib2 2026-04-15 16:25 1.0M
20260415T12Z_MSC_GDPS_DewPointDepression_IsbL-1000_LatLon0.15_PT096H.grib2 2026-04-15 16:25 963K
20260415T12Z_MSC_GDPS_DewPointDepression_IsbL-1015_LatLon0.15_PT096H.grib2 2026-04-15 16:25 901K
20260415T12Z_MSC_GDPS_DewPoint_AGL-2m_LatLon0.15_PT096H.grib2 2026-04-15 16:25 613K
20260415T12Z_MSC_GDPS_DownwardLongwaveRadiationFlux-Accum_Sfc_LatLon0.15_PT096H.grib2 2026-04-15 16:25 720K
20260415T12Z_MSC_GDPS_DownwardShortwaveRadiationFlux-Accum_NTAtm_LatLon0.15_PT096H.grib2 2026-04-15 16:25 232K
20260415T12Z_MSC_GDPS_DownwardShortwaveRadiationFlux-Accum_Sfc_LatLon0.15_PT096H.grib2 2026-04-15 16:25 955K
20260415T12Z_MSC_GDPS_FreezingRain-Accum12h_Sfc_LatLon0.15_PT096H.grib2 2026-04-15 16:25 92K
20260415T12Z_MSC_GDPS_FreezingRain-Accum1h_Sfc_LatLon0.15_PT096H.grib2 2026-04-15 16:25 45K
20260415T12Z_MSC_GDPS_FreezingRain-Accum24h_Sfc_LatLon0.15_PT096H.grib2 2026-04-15 16:25 129K
20260415T12Z_MSC_GDPS_FreezingRain-Accum3h_Sfc_LatLon0.15_PT096H.grib2 2026-04-15 16:25 55K
20260415T12Z_MSC_GDPS_FreezingRain-Accum6h_Sfc_LatLon0.15_PT096H.grib2 2026-04-15 16:25 76K
20260415T12Z_MSC_GDPS_FreezingRain-Accum_Sfc_LatLon0.15_PT096H.grib2 2026-04-15 16:25 279K
20260415T12Z_MSC_GDPS_GeopotentialHeight_IsbL-0001_LatLon0.15_PT096H.grib2 2026-04-15 16:25 388K
20260415T12Z_MSC_GDPS_GeopotentialHeight_IsbL-0005_LatLon0.15_PT096H.grib2 2026-04-15 16:25 504K
20260415T12Z_MSC_GDPS_GeopotentialHeight_IsbL-0010_LatLon0.15_PT096H.grib2 2026-04-15 16:25 437K
20260415T12Z_MSC_GDPS_GeopotentialHeight_IsbL-0020_LatLon0.15_PT096H.grib2 2026-04-15 16:25 579K
20260415T12Z_MSC_GDPS_GeopotentialHeight_IsbL-0030_LatLon0.15_PT096H.grib2 2026-04-15 16:25 581K
20260415T12Z_MSC_GDPS_GeopotentialHeight_IsbL-0050_LatLon0.15_PT096H.grib2 2026-04-15 16:25 585K
20260415T12Z_MSC_GDPS_GeopotentialHeight_IsbL-0100_LatLon0.15_PT096H.grib2 2026-04-15 16:25 621K
20260415T12Z_MSC_GDPS_GeopotentialHeight_IsbL-0150_LatLon0.15_PT096H.grib2 2026-04-15 16:25 636K
20260415T12Z_MSC_GDPS_GeopotentialHeight_IsbL-0175_LatLon0.15_PT096H.grib2 2026-04-15 16:25 639K
20260415T12Z_MSC_GDPS_GeopotentialHeight_IsbL-0200_LatLon0.15_PT096H.grib2 2026-04-15 16:25 644K
20260415T12Z_MSC_GDPS_GeopotentialHeight_IsbL-0225_LatLon0.15_PT096H.grib2 2026-04-15 16:25 645K
20260415T12Z_MSC_GDPS_GeopotentialHeight_IsbL-0250_LatLon0.15_PT096H.grib2 2026-04-15 16:25 646K
20260415T12Z_MSC_GDPS_GeopotentialHeight_IsbL-0275_LatLon0.15_PT096H.grib2 2026-04-15 16:25 642K
20260415T12Z_MSC_GDPS_GeopotentialHeight_IsbL-0300_LatLon0.15_PT096H.grib2 2026-04-15 16:25 641K
20260415T12Z_MSC_GDPS_GeopotentialHeight_IsbL-0350_LatLon0.15_PT096H.grib2 2026-04-15 16:25 630K
20260415T12Z_MSC_GDPS_GeopotentialHeight_IsbL-0400_LatLon0.15_PT096H.grib2 2026-04-15 16:25 620K
20260415T12Z_MSC_GDPS_GeopotentialHeight_IsbL-0450_LatLon0.15_PT096H.grib2 2026-04-15 16:25 542K
20260415T12Z_MSC_GDPS_GeopotentialHeight_IsbL-0500_LatLon0.15_PT096H.grib2 2026-04-15 16:25 533K
20260415T12Z_MSC_GDPS_GeopotentialHeight_IsbL-0550_LatLon0.15_PT096H.grib2 2026-04-15 16:25 696K
20260415T12Z_MSC_GDPS_GeopotentialHeight_IsbL-0600_LatLon0.15_PT096H.grib2 2026-04-15 16:25 688K
20260415T12Z_MSC_GDPS_GeopotentialHeight_IsbL-0650_LatLon0.15_PT096H.grib2 2026-04-15 16:25 689K
20260415T12Z_MSC_GDPS_GeopotentialHeight_IsbL-0700_LatLon0.15_PT096H.grib2 2026-04-15 16:25 690K
20260415T12Z_MSC_GDPS_GeopotentialHeight_IsbL-0750_LatLon0.15_PT096H.grib2 2026-04-15 16:25 687K
20260415T12Z_MSC_GDPS_GeopotentialHeight_IsbL-0800_LatLon0.15_PT096H.grib2 2026-04-15 16:25 635K
20260415T12Z_MSC_GDPS_GeopotentialHeight_IsbL-0850_LatLon0.15_PT096H.grib2 2026-04-15 16:25 646K
20260415T12Z_MSC_GDPS_GeopotentialHeight_IsbL-0875_LatLon0.15_PT096H.grib2 2026-04-15 16:25 650K
20260415T12Z_MSC_GDPS_GeopotentialHeight_IsbL-0900_LatLon0.15_PT096H.grib2 2026-04-15 16:25 658K
20260415T12Z_MSC_GDPS_GeopotentialHeight_IsbL-0925_LatLon0.15_PT096H.grib2 2026-04-15 16:25 666K
20260415T12Z_MSC_GDPS_GeopotentialHeight_IsbL-0950_LatLon0.15_PT096H.grib2 2026-04-15 16:25 735K
20260415T12Z_MSC_GDPS_GeopotentialHeight_IsbL-0970_LatLon0.15_PT096H.grib2 2026-04-15 16:25 744K
20260415T12Z_MSC_GDPS_GeopotentialHeight_IsbL-0985_LatLon0.15_PT096H.grib2 2026-04-15 16:25 763K
20260415T12Z_MSC_GDPS_GeopotentialHeight_IsbL-1000_LatLon0.15_PT096H.grib2 2026-04-15 16:25 786K
20260415T12Z_MSC_GDPS_GeopotentialHeight_IsbL-1015_LatLon0.15_PT096H.grib2 2026-04-15 16:25 810K
20260415T12Z_MSC_GDPS_Humidex_Sfc_LatLon0.15_PT096H.grib2 2026-04-15 16:25 5.3M
20260415T12Z_MSC_GDPS_IcePellets-Accum12h_Sfc_LatLon0.15_PT096H.grib2 2026-04-15 16:25 64K
20260415T12Z_MSC_GDPS_IcePellets-Accum1h_Sfc_LatLon0.15_PT096H.grib2 2026-04-15 16:25 21K
20260415T12Z_MSC_GDPS_IcePellets-Accum24h_Sfc_LatLon0.15_PT096H.grib2 2026-04-15 16:25 60K
20260415T12Z_MSC_GDPS_IcePellets-Accum3h_Sfc_LatLon0.15_PT096H.grib2 2026-04-15 16:25 28K
20260415T12Z_MSC_GDPS_IcePellets-Accum6h_Sfc_LatLon0.15_PT096H.grib2 2026-04-15 16:25 42K
20260415T12Z_MSC_GDPS_IcePellets-Accum_Sfc_LatLon0.15_PT096H.grib2 2026-04-15 16:25 141K
20260415T12Z_MSC_GDPS_KIndex_Sfc_LatLon0.15_PT096H.grib2 2026-04-15 16:25 6.5M
20260415T12Z_MSC_GDPS_LatentHeatNetFlux_Sfc_LatLon0.15_PT096H.grib2 2026-04-15 16:25 536K
20260415T12Z_MSC_GDPS_LiftedIndex-MU-VT_IsbL-0500_LatLon0.15_PT096H.grib2 2026-04-15 16:25 5.4M
20260415T12Z_MSC_GDPS_NetLongwaveRadiationFlux-Accum_Sfc_LatLon0.15_PT096H.grib2 2026-04-15 16:25 954K
20260415T12Z_MSC_GDPS_NetShortwaveRadiationFlux-Accum_Sfc_LatLon0.15_PT096H.grib2 2026-04-15 16:25 948K
20260415T12Z_MSC_GDPS_O3MixingRatio_LatLon0.15_PT096H.grib2 2026-04-15 16:49 2.2M
20260415T12Z_MSC_GDPS_O3_EAtm_LatLon0.15_PT096H.grib2 2026-04-15 16:49 2.1M
20260415T12Z_MSC_GDPS_PlanetaryBoundaryLayerHeight_Sfc_LatLon0.15_PT096H.grib2 2026-04-15 16:25 2.5M
20260415T12Z_MSC_GDPS_Precip-Accum12h_Sfc_LatLon0.15_PT096H.grib2 2026-04-15 16:25 4.0M
20260415T12Z_MSC_GDPS_Precip-Accum1h_Sfc_LatLon0.15_PT096H.grib2 2026-04-15 16:25 3.2M
20260415T12Z_MSC_GDPS_Precip-Accum24h_Sfc_LatLon0.15_PT096H.grib2 2026-04-15 16:25 4.5M
20260415T12Z_MSC_GDPS_Precip-Accum3h_Sfc_LatLon0.15_PT096H.grib2 2026-04-15 16:25 3.5M
20260415T12Z_MSC_GDPS_Precip-Accum6h_Sfc_LatLon0.15_PT096H.grib2 2026-04-15 16:25 3.8M
20260415T12Z_MSC_GDPS_Precip-Accum_Sfc_LatLon0.15_PT096H.grib2 2026-04-15 16:25 5.0M
20260415T12Z_MSC_GDPS_PrecipRate_Sfc_LatLon0.15_PT096H.grib2 2026-04-15 16:25 3.0M
20260415T12Z_MSC_GDPS_PrecipType-Instant_Sfc_LatLon0.15_PT096H.grib2 2026-04-15 16:25 1.6M
20260415T12Z_MSC_GDPS_Pressure_MSL_LatLon0.15_PT096H.grib2 2026-04-15 16:25 721K
20260415T12Z_MSC_GDPS_Pressure_PVU-1.5_LatLon0.15_PT096H.grib2 2026-04-15 16:25 5.8M
20260415T12Z_MSC_GDPS_Pressure_PVU-1_LatLon0.15_PT096H.grib2 2026-04-15 16:25 6.0M
20260415T12Z_MSC_GDPS_Pressure_PVU-2_LatLon0.15_PT096H.grib2 2026-04-15 16:25 5.6M
20260415T12Z_MSC_GDPS_Pressure_Sfc_LatLon0.15_PT096H.grib2 2026-04-15 16:25 1.1M
20260415T12Z_MSC_GDPS_RadiativeTemp_Sfc_LatLon0.15_PT096H.grib2 2026-04-15 16:25 680K
20260415T12Z_MSC_GDPS_Rain-Accum12h_Sfc_LatLon0.15_PT096H.grib2 2026-04-15 16:25 2.6M
20260415T12Z_MSC_GDPS_Rain-Accum1h_Sfc_LatLon0.15_PT096H.grib2 2026-04-15 16:25 1.6M
20260415T12Z_MSC_GDPS_Rain-Accum24h_Sfc_LatLon0.15_PT096H.grib2 2026-04-15 16:25 3.1M
20260415T12Z_MSC_GDPS_Rain-Accum3h_Sfc_LatLon0.15_PT096H.grib2 2026-04-15 16:25 1.7M
20260415T12Z_MSC_GDPS_Rain-Accum6h_Sfc_LatLon0.15_PT096H.grib2 2026-04-15 16:25 2.4M
20260415T12Z_MSC_GDPS_Rain-Accum_Sfc_LatLon0.15_PT096H.grib2 2026-04-15 16:25 3.8M
20260415T12Z_MSC_GDPS_RelativeHumidity_AGL-2m_LatLon0.15_PT096H.grib2 2026-04-15 16:25 1.1M
20260415T12Z_MSC_GDPS_RelativeHumidity_IsbL-0010_LatLon0.15_PT096H.grib2 2026-04-15 16:25 254K
20260415T12Z_MSC_GDPS_RelativeHumidity_IsbL-0020_LatLon0.15_PT096H.grib2 2026-04-15 16:25 371K
20260415T12Z_MSC_GDPS_RelativeHumidity_IsbL-0030_LatLon0.15_PT096H.grib2 2026-04-15 16:25 377K
20260415T12Z_MSC_GDPS_RelativeHumidity_IsbL-0050_LatLon0.15_PT096H.grib2 2026-04-15 16:25 322K
20260415T12Z_MSC_GDPS_RelativeHumidity_IsbL-0100_LatLon0.15_PT096H.grib2 2026-04-15 16:25 336K
20260415T12Z_MSC_GDPS_RelativeHumidity_IsbL-0150_LatLon0.15_PT096H.grib2 2026-04-15 16:25 653K
20260415T12Z_MSC_GDPS_RelativeHumidity_IsbL-0175_LatLon0.15_PT096H.grib2 2026-04-15 16:25 792K
20260415T12Z_MSC_GDPS_RelativeHumidity_IsbL-0200_LatLon0.15_PT096H.grib2 2026-04-15 16:25 690K
20260415T12Z_MSC_GDPS_RelativeHumidity_IsbL-0225_LatLon0.15_PT096H.grib2 2026-04-15 16:25 774K
20260415T12Z_MSC_GDPS_RelativeHumidity_IsbL-0250_LatLon0.15_PT096H.grib2 2026-04-15 16:25 868K
20260415T12Z_MSC_GDPS_RelativeHumidity_IsbL-0275_LatLon0.15_PT096H.grib2 2026-04-15 16:25 893K
20260415T12Z_MSC_GDPS_RelativeHumidity_IsbL-0300_LatLon0.15_PT096H.grib2 2026-04-15 16:25 937K
20260415T12Z_MSC_GDPS_RelativeHumidity_IsbL-0350_LatLon0.15_PT096H.grib2 2026-04-15 16:25 953K
20260415T12Z_MSC_GDPS_RelativeHumidity_IsbL-0400_LatLon0.15_PT096H.grib2 2026-04-15 16:25 1.0M
20260415T12Z_MSC_GDPS_RelativeHumidity_IsbL-0450_LatLon0.15_PT096H.grib2 2026-04-15 16:25 1.0M
20260415T12Z_MSC_GDPS_RelativeHumidity_IsbL-0500_LatLon0.15_PT096H.grib2 2026-04-15 16:25 1.0M
20260415T12Z_MSC_GDPS_RelativeHumidity_IsbL-0550_LatLon0.15_PT096H.grib2 2026-04-15 16:25 1.0M
20260415T12Z_MSC_GDPS_RelativeHumidity_IsbL-0600_LatLon0.15_PT096H.grib2 2026-04-15 16:25 1.1M
20260415T12Z_MSC_GDPS_RelativeHumidity_IsbL-0650_LatLon0.15_PT096H.grib2 2026-04-15 16:25 1.1M
20260415T12Z_MSC_GDPS_RelativeHumidity_IsbL-0700_LatLon0.15_PT096H.grib2 2026-04-15 16:25 1.2M
20260415T12Z_MSC_GDPS_RelativeHumidity_IsbL-0750_LatLon0.15_PT096H.grib2 2026-04-15 16:25 1.2M
20260415T12Z_MSC_GDPS_RelativeHumidity_IsbL-0800_LatLon0.15_PT096H.grib2 2026-04-15 16:25 1.3M
20260415T12Z_MSC_GDPS_RelativeHumidity_IsbL-0850_LatLon0.15_PT096H.grib2 2026-04-15 16:25 1.3M
20260415T12Z_MSC_GDPS_RelativeHumidity_IsbL-0875_LatLon0.15_PT096H.grib2 2026-04-15 16:25 1.3M
20260415T12Z_MSC_GDPS_RelativeHumidity_IsbL-0900_LatLon0.15_PT096H.grib2 2026-04-15 16:25 1.2M
20260415T12Z_MSC_GDPS_RelativeHumidity_IsbL-0925_LatLon0.15_PT096H.grib2 2026-04-15 16:25 1.2M
20260415T12Z_MSC_GDPS_RelativeHumidity_IsbL-0950_LatLon0.15_PT096H.grib2 2026-04-15 16:25 1.2M
20260415T12Z_MSC_GDPS_RelativeHumidity_IsbL-0970_LatLon0.15_PT096H.grib2 2026-04-15 16:25 1.2M
20260415T12Z_MSC_GDPS_RelativeHumidity_IsbL-0985_LatLon0.15_PT096H.grib2 2026-04-15 16:25 1.1M
20260415T12Z_MSC_GDPS_RelativeHumidity_IsbL-1000_LatLon0.15_PT096H.grib2 2026-04-15 16:25 1.1M
20260415T12Z_MSC_GDPS_RelativeHumidity_IsbL-1015_LatLon0.15_PT096H.grib2 2026-04-15 16:25 1.0M
20260415T12Z_MSC_GDPS_RelativeVorticity_IsbL-0200_LatLon0.15_PT096H.grib2 2026-04-15 16:25 1.5M
20260415T12Z_MSC_GDPS_RelativeVorticity_IsbL-0250_LatLon0.15_PT096H.grib2 2026-04-15 16:25 1.5M
20260415T12Z_MSC_GDPS_RelativeVorticity_IsbL-0500_LatLon0.15_PT096H.grib2 2026-04-15 16:25 1.4M
20260415T12Z_MSC_GDPS_RelativeVorticity_IsbL-0700_LatLon0.15_PT096H.grib2 2026-04-15 16:25 1.6M
20260415T12Z_MSC_GDPS_RelativeVorticity_IsbL-0850_LatLon0.15_PT096H.grib2 2026-04-15 16:25 1.6M
20260415T12Z_MSC_GDPS_Runoff-Accum_Sfc_LatLon0.15_PT096H.grib2 2026-04-15 16:25 143K
20260415T12Z_MSC_GDPS_SensibleHeatNetFlux_Sfc_LatLon0.15_PT096H.grib2 2026-04-15 16:25 638K
20260415T12Z_MSC_GDPS_ShowalterIndex_IsbL-0500_LatLon0.15_PT096H.grib2 2026-04-15 16:25 6.2M
20260415T12Z_MSC_GDPS_Snow-Accum12h_Sfc_LatLon0.15_PT096H.grib2 2026-04-15 16:25 1.6M
20260415T12Z_MSC_GDPS_Snow-Accum1h_Sfc_LatLon0.15_PT096H.grib2 2026-04-15 16:25 1.1M
20260415T12Z_MSC_GDPS_Snow-Accum24h_Sfc_LatLon0.15_PT096H.grib2 2026-04-15 16:25 1.6M
20260415T12Z_MSC_GDPS_Snow-Accum3h_Sfc_LatLon0.15_PT096H.grib2 2026-04-15 16:25 1.1M
20260415T12Z_MSC_GDPS_Snow-Accum6h_Sfc_LatLon0.15_PT096H.grib2 2026-04-15 16:25 1.5M
20260415T12Z_MSC_GDPS_Snow-Accum_Sfc_LatLon0.15_PT096H.grib2 2026-04-15 16:25 2.0M
20260415T12Z_MSC_GDPS_SnowDensity_Sfc_LatLon0.15_PT096H.grib2 2026-04-15 16:25 270K
20260415T12Z_MSC_GDPS_SnowDepth_Sfc_LatLon0.15_PT096H.grib2 2026-04-15 16:25 1.8M
20260415T12Z_MSC_GDPS_SoilTemp_DBS-0to10cm_LatLon0.15_PT096H.grib2 2026-04-15 16:25 505K
20260415T12Z_MSC_GDPS_SoilTemp_Sfc_LatLon0.15_PT096H.grib2 2026-04-15 16:25 573K
20260415T12Z_MSC_GDPS_SoilVolumetricIceContent_Sfc_LatLon0.15_PT096H.grib2 2026-04-15 16:25 223K
20260415T12Z_MSC_GDPS_SoilVolumetricWaterContent_DBS-0to10cm_LatLon0.15_PT096H.grib2 2026-04-15 16:25 554K
20260415T12Z_MSC_GDPS_SoilVolumetricWaterContent_DBS-0to1cm_LatLon0.15_PT096H.grib2 2026-04-15 16:25 651K
20260415T12Z_MSC_GDPS_SpecificHumidity_AGL-120m_LatLon0.15_PT096H.grib2 2026-04-15 16:25 1.1M
20260415T12Z_MSC_GDPS_SpecificHumidity_AGL-2m_LatLon0.15_PT096H.grib2 2026-04-15 16:25 1.2M
20260415T12Z_MSC_GDPS_SpecificHumidity_AGL-40m_LatLon0.15_PT096H.grib2 2026-04-15 16:25 1.1M
20260415T12Z_MSC_GDPS_SpecificHumidity_AGL-80m_LatLon0.15_PT096H.grib2 2026-04-15 16:25 1.1M
20260415T12Z_MSC_GDPS_SpecificHumidity_IsbL-0001_LatLon0.15_PT096H.grib2 2026-04-15 16:25 1.2M
20260415T12Z_MSC_GDPS_SpecificHumidity_IsbL-0005_LatLon0.15_PT096H.grib2 2026-04-15 16:25 1.1M
20260415T12Z_MSC_GDPS_SpecificHumidity_IsbL-0010_LatLon0.15_PT096H.grib2 2026-04-15 16:25 1.3M
20260415T12Z_MSC_GDPS_SpecificHumidity_IsbL-0020_LatLon0.15_PT096H.grib2 2026-04-15 16:25 1.6M
20260415T12Z_MSC_GDPS_SpecificHumidity_IsbL-0030_LatLon0.15_PT096H.grib2 2026-04-15 16:25 1.6M
20260415T12Z_MSC_GDPS_SpecificHumidity_IsbL-0050_LatLon0.15_PT096H.grib2 2026-04-15 16:25 1.3M
20260415T12Z_MSC_GDPS_SpecificHumidity_IsbL-0100_LatLon0.15_PT096H.grib2 2026-04-15 16:25 1.3M
20260415T12Z_MSC_GDPS_SpecificHumidity_IsbL-0150_LatLon0.15_PT096H.grib2 2026-04-15 16:25 1.3M
20260415T12Z_MSC_GDPS_SpecificHumidity_IsbL-0175_LatLon0.15_PT096H.grib2 2026-04-15 16:25 1.3M
20260415T12Z_MSC_GDPS_SpecificHumidity_IsbL-0200_LatLon0.15_PT096H.grib2 2026-04-15 16:25 1.3M
20260415T12Z_MSC_GDPS_SpecificHumidity_IsbL-0225_LatLon0.15_PT096H.grib2 2026-04-15 16:25 1.3M
20260415T12Z_MSC_GDPS_SpecificHumidity_IsbL-0250_LatLon0.15_PT096H.grib2 2026-04-15 16:25 1.4M
20260415T12Z_MSC_GDPS_SpecificHumidity_IsbL-0275_LatLon0.15_PT096H.grib2 2026-04-15 16:25 1.3M
20260415T12Z_MSC_GDPS_SpecificHumidity_IsbL-0300_LatLon0.15_PT096H.grib2 2026-04-15 16:25 1.2M
20260415T12Z_MSC_GDPS_SpecificHumidity_IsbL-0350_LatLon0.15_PT096H.grib2 2026-04-15 16:25 1.2M
20260415T12Z_MSC_GDPS_SpecificHumidity_IsbL-0400_LatLon0.15_PT096H.grib2 2026-04-15 16:25 1.5M
20260415T12Z_MSC_GDPS_SpecificHumidity_IsbL-0450_LatLon0.15_PT096H.grib2 2026-04-15 16:25 1.6M
20260415T12Z_MSC_GDPS_SpecificHumidity_IsbL-0500_LatLon0.15_PT096H.grib2 2026-04-15 16:25 1.4M
20260415T12Z_MSC_GDPS_SpecificHumidity_IsbL-0550_LatLon0.15_PT096H.grib2 2026-04-15 16:25 1.6M
20260415T12Z_MSC_GDPS_SpecificHumidity_IsbL-0600_LatLon0.15_PT096H.grib2 2026-04-15 16:25 1.4M
20260415T12Z_MSC_GDPS_SpecificHumidity_IsbL-0650_LatLon0.15_PT096H.grib2 2026-04-15 16:25 1.5M
20260415T12Z_MSC_GDPS_SpecificHumidity_IsbL-0700_LatLon0.15_PT096H.grib2 2026-04-15 16:25 1.6M
20260415T12Z_MSC_GDPS_SpecificHumidity_IsbL-0750_LatLon0.15_PT096H.grib2 2026-04-15 16:25 1.7M
20260415T12Z_MSC_GDPS_SpecificHumidity_IsbL-0800_LatLon0.15_PT096H.grib2 2026-04-15 16:25 1.9M
20260415T12Z_MSC_GDPS_SpecificHumidity_IsbL-0850_LatLon0.15_PT096H.grib2 2026-04-15 16:25 1.9M
20260415T12Z_MSC_GDPS_SpecificHumidity_IsbL-0875_LatLon0.15_PT096H.grib2 2026-04-15 16:25 1.9M
20260415T12Z_MSC_GDPS_SpecificHumidity_IsbL-0900_LatLon0.15_PT096H.grib2 2026-04-15 16:25 1.6M
20260415T12Z_MSC_GDPS_SpecificHumidity_IsbL-0925_LatLon0.15_PT096H.grib2 2026-04-15 16:25 1.6M
20260415T12Z_MSC_GDPS_SpecificHumidity_IsbL-0950_LatLon0.15_PT096H.grib2 2026-04-15 16:25 1.5M
20260415T12Z_MSC_GDPS_SpecificHumidity_IsbL-0970_LatLon0.15_PT096H.grib2 2026-04-15 16:25 1.5M
20260415T12Z_MSC_GDPS_SpecificHumidity_IsbL-0985_LatLon0.15_PT096H.grib2 2026-04-15 16:25 1.5M
20260415T12Z_MSC_GDPS_SpecificHumidity_IsbL-1000_LatLon0.15_PT096H.grib2 2026-04-15 16:25 1.5M
20260415T12Z_MSC_GDPS_SpecificHumidity_IsbL-1015_LatLon0.15_PT096H.grib2 2026-04-15 16:25 1.4M
20260415T12Z_MSC_GDPS_SpecificHumidity_Sfc_LatLon0.15_PT096H.grib2 2026-04-15 16:25 671K
20260415T12Z_MSC_GDPS_Thickness_IsbL-0850to0700_LatLon0.15_PT096H.grib2 2026-04-15 16:25 471K
20260415T12Z_MSC_GDPS_Thickness_IsbL-1000to0500_LatLon0.15_PT096H.grib2 2026-04-15 16:25 377K
20260415T12Z_MSC_GDPS_Thickness_IsbL-1000to0850_LatLon0.15_PT096H.grib2 2026-04-15 16:25 492K
20260415T12Z_MSC_GDPS_TotalCloudCover_Sfc_LatLon0.15_PT096H.grib2 2026-04-15 16:25 817K
20260415T12Z_MSC_GDPS_TotalTotalsIndex_Sfc_LatLon0.15_PT096H.grib2 2026-04-15 16:25 6.2M
20260415T12Z_MSC_GDPS_UVIndex-ClearSky_Sfc_LatLon0.15_PT096H.grib2 2026-04-15 16:49 1.0M
20260415T12Z_MSC_GDPS_UVIndex_Sfc_LatLon0.15_PT096H.grib2 2026-04-15 16:49 1.4M
20260415T12Z_MSC_GDPS_UpwardLongwaveRadiationFlux_NTAtm_LatLon0.15_PT096H.grib2 2026-04-15 16:25 836K
20260415T12Z_MSC_GDPS_VerticalVelocity_IsbL-0200_LatLon0.15_PT096H.grib2 2026-04-15 16:25 1.1M
20260415T12Z_MSC_GDPS_VerticalVelocity_IsbL-0250_LatLon0.15_PT096H.grib2 2026-04-15 16:25 1.0M
20260415T12Z_MSC_GDPS_VerticalVelocity_IsbL-0500_LatLon0.15_PT096H.grib2 2026-04-15 16:25 1.3M
20260415T12Z_MSC_GDPS_VerticalVelocity_IsbL-0600_LatLon0.15_PT096H.grib2 2026-04-15 16:25 1.3M
20260415T12Z_MSC_GDPS_VerticalVelocity_IsbL-0700_LatLon0.15_PT096H.grib2 2026-04-15 16:25 1.4M
20260415T12Z_MSC_GDPS_VerticalVelocity_IsbL-0850_LatLon0.15_PT096H.grib2 2026-04-15 16:25 1.3M
20260415T12Z_MSC_GDPS_WindChill_Sfc_LatLon0.15_PT096H.grib2 2026-04-15 16:25 5.3M
20260415T12Z_MSC_GDPS_WindDir_AGL-10m_LatLon0.15_PT096H.grib2 2026-04-15 16:25 1.3M
20260415T12Z_MSC_GDPS_WindDir_AGL-120m_LatLon0.15_PT096H.grib2 2026-04-15 16:25 1.4M
20260415T12Z_MSC_GDPS_WindDir_AGL-40m_LatLon0.15_PT096H.grib2 2026-04-15 16:25 1.4M
20260415T12Z_MSC_GDPS_WindDir_AGL-80m_LatLon0.15_PT096H.grib2 2026-04-15 16:25 1.4M
20260415T12Z_MSC_GDPS_WindDir_IsbL-0001_LatLon0.15_PT096H.grib2 2026-04-15 16:25 628K
20260415T12Z_MSC_GDPS_WindDir_IsbL-0005_LatLon0.15_PT096H.grib2 2026-04-15 16:25 793K
20260415T12Z_MSC_GDPS_WindDir_IsbL-0010_LatLon0.15_PT096H.grib2 2026-04-15 16:25 841K
20260415T12Z_MSC_GDPS_WindDir_IsbL-0020_LatLon0.15_PT096H.grib2 2026-04-15 16:25 934K
20260415T12Z_MSC_GDPS_WindDir_IsbL-0030_LatLon0.15_PT096H.grib2 2026-04-15 16:25 894K
20260415T12Z_MSC_GDPS_WindDir_IsbL-0050_LatLon0.15_PT096H.grib2 2026-04-15 16:25 950K
20260415T12Z_MSC_GDPS_WindDir_IsbL-0100_LatLon0.15_PT096H.grib2 2026-04-15 16:25 1.0M
20260415T12Z_MSC_GDPS_WindDir_IsbL-0150_LatLon0.15_PT096H.grib2 2026-04-15 16:25 1.0M
20260415T12Z_MSC_GDPS_WindDir_IsbL-0175_LatLon0.15_PT096H.grib2 2026-04-15 16:25 1.0M
20260415T12Z_MSC_GDPS_WindDir_IsbL-0200_LatLon0.15_PT096H.grib2 2026-04-15 16:25 1.1M
20260415T12Z_MSC_GDPS_WindDir_IsbL-0225_LatLon0.15_PT096H.grib2 2026-04-15 16:25 1.1M
20260415T12Z_MSC_GDPS_WindDir_IsbL-0250_LatLon0.15_PT096H.grib2 2026-04-15 16:25 1.1M
20260415T12Z_MSC_GDPS_WindDir_IsbL-0275_LatLon0.15_PT096H.grib2 2026-04-15 16:25 1.2M
20260415T12Z_MSC_GDPS_WindDir_IsbL-0300_LatLon0.15_PT096H.grib2 2026-04-15 16:25 1.2M
20260415T12Z_MSC_GDPS_WindDir_IsbL-0350_LatLon0.15_PT096H.grib2 2026-04-15 16:25 1.2M
20260415T12Z_MSC_GDPS_WindDir_IsbL-0400_LatLon0.15_PT096H.grib2 2026-04-15 16:25 1.2M
20260415T12Z_MSC_GDPS_WindDir_IsbL-0450_LatLon0.15_PT096H.grib2 2026-04-15 16:25 1.3M
20260415T12Z_MSC_GDPS_WindDir_IsbL-0500_LatLon0.15_PT096H.grib2 2026-04-15 16:25 1.3M
20260415T12Z_MSC_GDPS_WindDir_IsbL-0550_LatLon0.15_PT096H.grib2 2026-04-15 16:25 1.4M
20260415T12Z_MSC_GDPS_WindDir_IsbL-0600_LatLon0.15_PT096H.grib2 2026-04-15 16:25 1.4M
20260415T12Z_MSC_GDPS_WindDir_IsbL-0650_LatLon0.15_PT096H.grib2 2026-04-15 16:25 1.5M
20260415T12Z_MSC_GDPS_WindDir_IsbL-0700_LatLon0.15_PT096H.grib2 2026-04-15 16:25 1.6M
20260415T12Z_MSC_GDPS_WindDir_IsbL-0750_LatLon0.15_PT096H.grib2 2026-04-15 16:25 1.7M
20260415T12Z_MSC_GDPS_WindDir_IsbL-0800_LatLon0.15_PT096H.grib2 2026-04-15 16:25 1.8M
20260415T12Z_MSC_GDPS_WindDir_IsbL-0850_LatLon0.15_PT096H.grib2 2026-04-15 16:25 1.9M
20260415T12Z_MSC_GDPS_WindDir_IsbL-0875_LatLon0.15_PT096H.grib2 2026-04-15 16:25 2.0M
20260415T12Z_MSC_GDPS_WindDir_IsbL-0900_LatLon0.15_PT096H.grib2 2026-04-15 16:25 2.0M
20260415T12Z_MSC_GDPS_WindDir_IsbL-0925_LatLon0.15_PT096H.grib2 2026-04-15 16:25 2.0M
20260415T12Z_MSC_GDPS_WindDir_IsbL-0950_LatLon0.15_PT096H.grib2 2026-04-15 16:25 2.0M
20260415T12Z_MSC_GDPS_WindDir_IsbL-0970_LatLon0.15_PT096H.grib2 2026-04-15 16:25 2.0M
20260415T12Z_MSC_GDPS_WindDir_IsbL-0985_LatLon0.15_PT096H.grib2 2026-04-15 16:25 2.0M
20260415T12Z_MSC_GDPS_WindDir_IsbL-1000_LatLon0.15_PT096H.grib2 2026-04-15 16:25 2.1M
20260415T12Z_MSC_GDPS_WindDir_IsbL-1015_LatLon0.15_PT096H.grib2 2026-04-15 16:25 2.0M
20260415T12Z_MSC_GDPS_WindGust-Max_AGL-10m_LatLon0.15_PT096H.grib2 2026-04-15 16:25 2.1M
20260415T12Z_MSC_GDPS_WindGust-Min_AGL-10m_LatLon0.15_PT096H.grib2 2026-04-15 16:25 2.2M
20260415T12Z_MSC_GDPS_WindGust_AGL-10m_LatLon0.15_PT096H.grib2 2026-04-15 16:25 2.2M
20260415T12Z_MSC_GDPS_WindSpeed_AGL-10m_LatLon0.15_PT096H.grib2 2026-04-15 16:25 1.1M
20260415T12Z_MSC_GDPS_WindSpeed_AGL-120m_LatLon0.15_PT096H.grib2 2026-04-15 16:25 1.2M
20260415T12Z_MSC_GDPS_WindSpeed_AGL-40m_LatLon0.15_PT096H.grib2 2026-04-15 16:25 1.2M
20260415T12Z_MSC_GDPS_WindSpeed_AGL-80m_LatLon0.15_PT096H.grib2 2026-04-15 16:25 1.2M
20260415T12Z_MSC_GDPS_WindSpeed_IsbL-0001_LatLon0.15_PT096H.grib2 2026-04-15 16:25 634K
20260415T12Z_MSC_GDPS_WindSpeed_IsbL-0005_LatLon0.15_PT096H.grib2 2026-04-15 16:25 687K
20260415T12Z_MSC_GDPS_WindSpeed_IsbL-0010_LatLon0.15_PT096H.grib2 2026-04-15 16:25 623K
20260415T12Z_MSC_GDPS_WindSpeed_IsbL-0020_LatLon0.15_PT096H.grib2 2026-04-15 16:25 665K
20260415T12Z_MSC_GDPS_WindSpeed_IsbL-0030_LatLon0.15_PT096H.grib2 2026-04-15 16:25 851K
20260415T12Z_MSC_GDPS_WindSpeed_IsbL-0050_LatLon0.15_PT096H.grib2 2026-04-15 16:25 910K
20260415T12Z_MSC_GDPS_WindSpeed_IsbL-0100_LatLon0.15_PT096H.grib2 2026-04-15 16:25 1.1M
20260415T12Z_MSC_GDPS_WindSpeed_IsbL-0150_LatLon0.15_PT096H.grib2 2026-04-15 16:25 1.0M
20260415T12Z_MSC_GDPS_WindSpeed_IsbL-0175_LatLon0.15_PT096H.grib2 2026-04-15 16:25 1.0M
20260415T12Z_MSC_GDPS_WindSpeed_IsbL-0200_LatLon0.15_PT096H.grib2 2026-04-15 16:25 1.1M
20260415T12Z_MSC_GDPS_WindSpeed_IsbL-0225_LatLon0.15_PT096H.grib2 2026-04-15 16:25 1.1M
20260415T12Z_MSC_GDPS_WindSpeed_IsbL-0250_LatLon0.15_PT096H.grib2 2026-04-15 16:25 1.1M
20260415T12Z_MSC_GDPS_WindSpeed_IsbL-0275_LatLon0.15_PT096H.grib2 2026-04-15 16:25 1.1M
20260415T12Z_MSC_GDPS_WindSpeed_IsbL-0300_LatLon0.15_PT096H.grib2 2026-04-15 16:25 1.1M
20260415T12Z_MSC_GDPS_WindSpeed_IsbL-0350_LatLon0.15_PT096H.grib2 2026-04-15 16:25 1.1M
20260415T12Z_MSC_GDPS_WindSpeed_IsbL-0400_LatLon0.15_PT096H.grib2 2026-04-15 16:25 1.1M
20260415T12Z_MSC_GDPS_WindSpeed_IsbL-0450_LatLon0.15_PT096H.grib2 2026-04-15 16:25 1.1M
20260415T12Z_MSC_GDPS_WindSpeed_IsbL-0500_LatLon0.15_PT096H.grib2 2026-04-15 16:25 1.1M
20260415T12Z_MSC_GDPS_WindSpeed_IsbL-0550_LatLon0.15_PT096H.grib2 2026-04-15 16:25 1.1M
20260415T12Z_MSC_GDPS_WindSpeed_IsbL-0600_LatLon0.15_PT096H.grib2 2026-04-15 16:25 1.1M
20260415T12Z_MSC_GDPS_WindSpeed_IsbL-0650_LatLon0.15_PT096H.grib2 2026-04-15 16:25 1.4M
20260415T12Z_MSC_GDPS_WindSpeed_IsbL-0700_LatLon0.15_PT096H.grib2 2026-04-15 16:25 1.5M
20260415T12Z_MSC_GDPS_WindSpeed_IsbL-0750_LatLon0.15_PT096H.grib2 2026-04-15 16:25 1.5M
20260415T12Z_MSC_GDPS_WindSpeed_IsbL-0800_LatLon0.15_PT096H.grib2 2026-04-15 16:25 1.7M
20260415T12Z_MSC_GDPS_WindSpeed_IsbL-0850_LatLon0.15_PT096H.grib2 2026-04-15 16:25 1.8M
20260415T12Z_MSC_GDPS_WindSpeed_IsbL-0875_LatLon0.15_PT096H.grib2 2026-04-15 16:25 1.9M
20260415T12Z_MSC_GDPS_WindSpeed_IsbL-0900_LatLon0.15_PT096H.grib2 2026-04-15 16:25 1.9M
20260415T12Z_MSC_GDPS_WindSpeed_IsbL-0925_LatLon0.15_PT096H.grib2 2026-04-15 16:25 1.9M
20260415T12Z_MSC_GDPS_WindSpeed_IsbL-0950_LatLon0.15_PT096H.grib2 2026-04-15 16:25 1.9M
20260415T12Z_MSC_GDPS_WindSpeed_IsbL-0970_LatLon0.15_PT096H.grib2 2026-04-15 16:25 1.9M
20260415T12Z_MSC_GDPS_WindSpeed_IsbL-0985_LatLon0.15_PT096H.grib2 2026-04-15 16:25 1.8M
20260415T12Z_MSC_GDPS_WindSpeed_IsbL-1000_LatLon0.15_PT096H.grib2 2026-04-15 16:25 1.8M
20260415T12Z_MSC_GDPS_WindSpeed_IsbL-1015_LatLon0.15_PT096H.grib2 2026-04-15 16:25 1.8M
20260415T12Z_MSC_GDPS_WindU_AGL-10m_LatLon0.15_PT096H.grib2 2026-04-15 16:25 1.3M
20260415T12Z_MSC_GDPS_WindU_AGL-120m_LatLon0.15_PT096H.grib2 2026-04-15 16:25 962K
20260415T12Z_MSC_GDPS_WindU_AGL-40m_LatLon0.15_PT096H.grib2 2026-04-15 16:25 959K
20260415T12Z_MSC_GDPS_WindU_AGL-80m_LatLon0.15_PT096H.grib2 2026-04-15 16:25 963K
20260415T12Z_MSC_GDPS_WindU_IsbL-0001_LatLon0.15_PT096H.grib2 2026-04-15 16:25 636K
20260415T12Z_MSC_GDPS_WindU_IsbL-0005_LatLon0.15_PT096H.grib2 2026-04-15 16:25 688K
20260415T12Z_MSC_GDPS_WindU_IsbL-0010_LatLon0.15_PT096H.grib2 2026-04-15 16:25 700K
20260415T12Z_MSC_GDPS_WindU_IsbL-0020_LatLon0.15_PT096H.grib2 2026-04-15 16:25 733K
20260415T12Z_MSC_GDPS_WindU_IsbL-0030_LatLon0.15_PT096H.grib2 2026-04-15 16:25 733K
20260415T12Z_MSC_GDPS_WindU_IsbL-0050_LatLon0.15_PT096H.grib2 2026-04-15 16:25 702K
20260415T12Z_MSC_GDPS_WindU_IsbL-0100_LatLon0.15_PT096H.grib2 2026-04-15 16:25 921K
20260415T12Z_MSC_GDPS_WindU_IsbL-0150_LatLon0.15_PT096H.grib2 2026-04-15 16:25 1.0M
20260415T12Z_MSC_GDPS_WindU_IsbL-0175_LatLon0.15_PT096H.grib2 2026-04-15 16:25 1.0M
20260415T12Z_MSC_GDPS_WindU_IsbL-0200_LatLon0.15_PT096H.grib2 2026-04-15 16:25 1.1M
20260415T12Z_MSC_GDPS_WindU_IsbL-0225_LatLon0.15_PT096H.grib2 2026-04-15 16:25 852K
20260415T12Z_MSC_GDPS_WindU_IsbL-0250_LatLon0.15_PT096H.grib2 2026-04-15 16:25 850K
20260415T12Z_MSC_GDPS_WindU_IsbL-0275_LatLon0.15_PT096H.grib2 2026-04-15 16:25 879K
20260415T12Z_MSC_GDPS_WindU_IsbL-0300_LatLon0.15_PT096H.grib2 2026-04-15 16:25 869K
20260415T12Z_MSC_GDPS_WindU_IsbL-0350_LatLon0.15_PT096H.grib2 2026-04-15 16:25 884K
20260415T12Z_MSC_GDPS_WindU_IsbL-0400_LatLon0.15_PT096H.grib2 2026-04-15 16:25 1.1M
20260415T12Z_MSC_GDPS_WindU_IsbL-0450_LatLon0.15_PT096H.grib2 2026-04-15 16:25 1.1M
20260415T12Z_MSC_GDPS_WindU_IsbL-0500_LatLon0.15_PT096H.grib2 2026-04-15 16:25 1.1M
20260415T12Z_MSC_GDPS_WindU_IsbL-0550_LatLon0.15_PT096H.grib2 2026-04-15 16:25 1.1M
20260415T12Z_MSC_GDPS_WindU_IsbL-0600_LatLon0.15_PT096H.grib2 2026-04-15 16:25 1.1M
20260415T12Z_MSC_GDPS_WindU_IsbL-0650_LatLon0.15_PT096H.grib2 2026-04-15 16:25 1.2M
20260415T12Z_MSC_GDPS_WindU_IsbL-0700_LatLon0.15_PT096H.grib2 2026-04-15 16:25 1.2M
20260415T12Z_MSC_GDPS_WindU_IsbL-0750_LatLon0.15_PT096H.grib2 2026-04-15 16:25 1.3M
20260415T12Z_MSC_GDPS_WindU_IsbL-0800_LatLon0.15_PT096H.grib2 2026-04-15 16:25 1.3M
20260415T12Z_MSC_GDPS_WindU_IsbL-0850_LatLon0.15_PT096H.grib2 2026-04-15 16:25 1.4M
20260415T12Z_MSC_GDPS_WindU_IsbL-0875_LatLon0.15_PT096H.grib2 2026-04-15 16:25 1.4M
20260415T12Z_MSC_GDPS_WindU_IsbL-0900_LatLon0.15_PT096H.grib2 2026-04-15 16:25 1.4M
20260415T12Z_MSC_GDPS_WindU_IsbL-0925_LatLon0.15_PT096H.grib2 2026-04-15 16:25 1.4M
20260415T12Z_MSC_GDPS_WindU_IsbL-0950_LatLon0.15_PT096H.grib2 2026-04-15 16:25 1.4M
20260415T12Z_MSC_GDPS_WindU_IsbL-0970_LatLon0.15_PT096H.grib2 2026-04-15 16:25 1.4M
20260415T12Z_MSC_GDPS_WindU_IsbL-0985_LatLon0.15_PT096H.grib2 2026-04-15 16:25 1.4M
20260415T12Z_MSC_GDPS_WindU_IsbL-1000_LatLon0.15_PT096H.grib2 2026-04-15 16:25 1.4M
20260415T12Z_MSC_GDPS_WindU_IsbL-1015_LatLon0.15_PT096H.grib2 2026-04-15 16:25 1.3M
20260415T12Z_MSC_GDPS_WindV_AGL-10m_LatLon0.15_PT096H.grib2 2026-04-15 16:25 1.6M
20260415T12Z_MSC_GDPS_WindV_AGL-120m_LatLon0.15_PT096H.grib2 2026-04-15 16:25 967K
20260415T12Z_MSC_GDPS_WindV_AGL-40m_LatLon0.15_PT096H.grib2 2026-04-15 16:25 964K
20260415T12Z_MSC_GDPS_WindV_AGL-80m_LatLon0.15_PT096H.grib2 2026-04-15 16:25 969K
20260415T12Z_MSC_GDPS_WindV_IsbL-0001_LatLon0.15_PT096H.grib2 2026-04-15 16:25 757K
20260415T12Z_MSC_GDPS_WindV_IsbL-0005_LatLon0.15_PT096H.grib2 2026-04-15 16:25 776K
20260415T12Z_MSC_GDPS_WindV_IsbL-0010_LatLon0.15_PT096H.grib2 2026-04-15 16:25 801K
20260415T12Z_MSC_GDPS_WindV_IsbL-0020_LatLon0.15_PT096H.grib2 2026-04-15 16:25 850K
20260415T12Z_MSC_GDPS_WindV_IsbL-0030_LatLon0.15_PT096H.grib2 2026-04-15 16:25 846K
20260415T12Z_MSC_GDPS_WindV_IsbL-0050_LatLon0.15_PT096H.grib2 2026-04-15 16:25 900K
20260415T12Z_MSC_GDPS_WindV_IsbL-0100_LatLon0.15_PT096H.grib2 2026-04-15 16:25 846K
20260415T12Z_MSC_GDPS_WindV_IsbL-0150_LatLon0.15_PT096H.grib2 2026-04-15 16:25 1.0M
20260415T12Z_MSC_GDPS_WindV_IsbL-0175_LatLon0.15_PT096H.grib2 2026-04-15 16:25 1.0M
20260415T12Z_MSC_GDPS_WindV_IsbL-0200_LatLon0.15_PT096H.grib2 2026-04-15 16:25 839K
20260415T12Z_MSC_GDPS_WindV_IsbL-0225_LatLon0.15_PT096H.grib2 2026-04-15 16:25 907K
20260415T12Z_MSC_GDPS_WindV_IsbL-0250_LatLon0.15_PT096H.grib2 2026-04-15 16:25 904K
20260415T12Z_MSC_GDPS_WindV_IsbL-0275_LatLon0.15_PT096H.grib2 2026-04-15 16:25 932K
20260415T12Z_MSC_GDPS_WindV_IsbL-0300_LatLon0.15_PT096H.grib2 2026-04-15 16:25 922K
20260415T12Z_MSC_GDPS_WindV_IsbL-0350_LatLon0.15_PT096H.grib2 2026-04-15 16:25 936K
20260415T12Z_MSC_GDPS_WindV_IsbL-0400_LatLon0.15_PT096H.grib2 2026-04-15 16:25 878K
20260415T12Z_MSC_GDPS_WindV_IsbL-0450_LatLon0.15_PT096H.grib2 2026-04-15 16:25 877K
20260415T12Z_MSC_GDPS_WindV_IsbL-0500_LatLon0.15_PT096H.grib2 2026-04-15 16:25 880K
20260415T12Z_MSC_GDPS_WindV_IsbL-0550_LatLon0.15_PT096H.grib2 2026-04-15 16:25 1.1M
20260415T12Z_MSC_GDPS_WindV_IsbL-0600_LatLon0.15_PT096H.grib2 2026-04-15 16:25 1.1M
20260415T12Z_MSC_GDPS_WindV_IsbL-0650_LatLon0.15_PT096H.grib2 2026-04-15 16:25 1.2M
20260415T12Z_MSC_GDPS_WindV_IsbL-0700_LatLon0.15_PT096H.grib2 2026-04-15 16:25 1.2M
20260415T12Z_MSC_GDPS_WindV_IsbL-0750_LatLon0.15_PT096H.grib2 2026-04-15 16:25 1.2M
20260415T12Z_MSC_GDPS_WindV_IsbL-0800_LatLon0.15_PT096H.grib2 2026-04-15 16:25 1.3M
20260415T12Z_MSC_GDPS_WindV_IsbL-0850_LatLon0.15_PT096H.grib2 2026-04-15 16:25 1.4M
20260415T12Z_MSC_GDPS_WindV_IsbL-0875_LatLon0.15_PT096H.grib2 2026-04-15 16:25 1.4M
20260415T12Z_MSC_GDPS_WindV_IsbL-0900_LatLon0.15_PT096H.grib2 2026-04-15 16:25 1.4M
20260415T12Z_MSC_GDPS_WindV_IsbL-0925_LatLon0.15_PT096H.grib2 2026-04-15 16:25 1.4M
20260415T12Z_MSC_GDPS_WindV_IsbL-0950_LatLon0.15_PT096H.grib2 2026-04-15 16:25 1.4M
20260415T12Z_MSC_GDPS_WindV_IsbL-0970_LatLon0.15_PT096H.grib2 2026-04-15 16:25 1.4M
20260415T12Z_MSC_GDPS_WindV_IsbL-0985_LatLon0.15_PT096H.grib2 2026-04-15 16:25 1.4M
20260415T12Z_MSC_GDPS_WindV_IsbL-1000_LatLon0.15_PT096H.grib2 2026-04-15 16:25 1.7M
20260415T12Z_MSC_GDPS_WindV_IsbL-1015_LatLon0.15_PT096H.grib2 2026-04-15 16:25 1.6M